,,,PA_Meas_PMT16A,,PR_Meas_QMR101_102,,RH_Meas_QMH101,,SR_Meas_QMS101,,TA_Meas_QMH101,,GenWind,,GenWind,
date,time,status,PA,status,PR,status,RH,status,SR,status,TA,status,DirAvg,status,SpdAvg,
2011-04-26, 00:00:04,VALID,1002.75,VALID,0,INVALID,163.578,VALID,0,VALID,25.8434,VALID,12,VALID,0.533203,
2011-04-26, 00:01:04,VALID,1002.75,VALID,0,INVALID,163.624,VALID,0,VALID,25.8434,VALID,12,VALID,0.335938,
2011-04-26, 00:02:04,VALID,1002.72,VALID,0,INVALID,163.594,VALID,0.100563,VALID,25.8434,VALID,13,VALID,0.632031,
2011-04-26, 00:03:04,VALID,1002.76,VALID,0,INVALID,163.586,VALID,0,VALID,25.8434,VALID,25,VALID,1.17148,
2011-04-26, 00:04:04,VALID,1002.74,VALID,0,INVALID,163.601,VALID,0,VALID,25.8239,VALID,14,VALID,0.845312,
2011-04-26, 00:05:04,VALID,1002.73,VALID,0,INVALID,163.601,VALID,0,VALID,25.9018,VALID,11,VALID,1.06641,
2011-04-26, 00:06:04,VALID,1002.71,VALID,0,INVALID,163.578,VALID,0.100563,VALID,26.0187,VALID,38,VALID,0.937891,
2011-04-26, 00:07:04,VALID,1002.72,VALID,0,INVALID,163.601,VALID,0,VALID,26.0576,VALID,42,VALID,0.379297,
2011-04-26, 00:08:04,VALID,1002.68,VALID,0,INVALID,163.601,VALID,0,VALID,26.0966,VALID,26,VALID,0.645703,
2011-04-26, 00:09:04,VALID,1002.65,VALID,0,INVALID,163.586,VALID,0,VALID,26.1355,VALID,87,VALID,0.788672,
2011-04-26, 00:10:04,VALID,1002.65,VALID,0,INVALID,163.563,VALID,0,VALID,26.1745,VALID,73,VALID,0.602734,
2011-04-26, 00:11:04,VALID,1002.65,VALID,0,INVALID,163.594,VALID,0.100563,VALID,26.2329,VALID,79,VALID,0.719922,
2011-04-26, 00:12:04,VALID,1002.63,VALID,0,INVALID,163.586,VALID,0.100563,VALID,26.2524,VALID,358,VALID,0.298438,
2011-04-26, 00:13:04,VALID,1002.57,VALID,0,INVALID,163.563,VALID,0.100563,VALID,26.2524,VALID,90,VALID,1.21797,
2011-04-26, 00:14:04,VALID,1002.56,VALID,0,INVALID,163.601,VALID,0,VALID,26.2933,VALID,350,VALID,0.28125,
2011-04-26, 00:15:04,VALID,1002.48,VALID,0,INVALID,163.571,VALID,0,VALID,26.3128,VALID,6,VALID,0.775781,
2011-04-26, 00:16:04,VALID,1002.5,VALID,0,INVALID,163.571,VALID,0,VALID,26.3108,VALID,42,VALID,0.397266,
2011-04-26, 00:17:04,VALID,1002.53,VALID,0,INVALID,163.571,VALID,0,VALID,26.3108,VALID,90,VALID,0.91875,
2011-04-26, 00:18:04,VALID,1002.51,VALID,0,INVALID,163.594,VALID,0.100563,VALID,26.2699,VALID,87,VALID,1.07578,
2011-04-26, 00:19:04,VALID,1002.51,VALID,0,INVALID,163.578,VALID,0,VALID,26.2719,VALID,105,VALID,0.951953,
2011-04-26, 00:20:04,VALID,1002.5,VALID,0,INVALID,163.571,VALID,0.100563,VALID,26.2309,VALID,101,VALID,1.07266,
2011-04-26, 00:21:04,VALID,1002.55,VALID,0,INVALID,163.578,VALID,0.100563,VALID,26.2329,VALID,112,VALID,0.613281,
2011-04-26, 00:22:04,VALID,1002.54,VALID,0,INVALID,163.563,VALID,0.100563,VALID,26.1745,VALID,116,VALID,0.780078,
2011-04-26, 00:23:04,VALID,1002.52,VALID,0,INVALID,163.578,VALID,0.100563,VALID,26.155,VALID,128,VALID,1.06758,
2011-04-26, 00:24:04,VALID,1002.49,VALID,0,INVALID,163.594,VALID,0,VALID,26.1355,VALID,96,VALID,1.30352,
2011-04-26, 00:25:04,VALID,1002.47,VALID,0,INVALID,163.586,VALID,0.100563,VALID,26.1355,VALID,104,VALID,0.732422,
2011-04-26, 00:26:04,VALID,1002.48,VALID,0,INVALID,163.594,VALID,0.100563,VALID,26.0946,VALID,80,VALID,0.712891,
2011-04-26, 00:27:04,VALID,1002.47,VALID,0,INVALID,163.586,VALID,0.100563,VALID,26.0576,VALID,20,VALID,0.699219,
2011-04-26, 00:28:04,VALID,1002.48,VALID,0,INVALID,163.601,VALID,0,VALID,26.0187,VALID,3,VALID,0.924609,
2011-04-26, 00:29:04,VALID,1002.49,VALID,0,INVALID,163.601,VALID,0,VALID,25.9602,VALID,22,VALID,1.29961,
2011-04-26, 00:30:04,VALID,1002.49,VALID,0,INVALID,163.609,VALID,0,VALID,25.9427,VALID,33,VALID,0.548437,
2011-04-26, 00:31:04,VALID,1002.5,VALID,0,INVALID,163.609,VALID,0,VALID,25.9038,VALID,33,VALID,0.325,
2011-04-26, 00:32:04,VALID,1002.47,VALID,0,INVALID,163.601,VALID,0,VALID,25.8434,VALID,14,VALID,0.667969,
2011-04-26, 00:33:04,VALID,1002.46,VALID,0,INVALID,163.586,VALID,0,VALID,25.8648,VALID,26,VALID,0.757031,
2011-04-26, 00:34:04,VALID,1002.44,VALID,0,INVALID,163.594,VALID,0,VALID,25.8259,VALID,4,VALID,1.00781,
2011-04-26, 00:35:04,VALID,1002.42,VALID,0,INVALID,163.617,VALID,0,VALID,25.8064,VALID,13,VALID,0.682422,
2011-04-26, 00:36:04,VALID,1002.39,VALID,0,INVALID,163.594,VALID,0,VALID,25.7674,VALID,18,VALID,0.417578,
2011-04-26, 00:37:04,VALID,1002.39,VALID,0,INVALID,163.624,VALID,0,VALID,25.7285,VALID,18,VALID,0.212891,
2011-04-26, 00:38:04,VALID,1002.36,VALID,0,INVALID,163.586,VALID,0,VALID,25.709,VALID,18,VALID,0,
2011-04-26, 00:39:05,VALID,1002.36,VALID,0,INVALID,163.624,VALID,0,VALID,25.6895,VALID,18,VALID,0.489062,
2011-04-26, 00:40:05,VALID,1002.32,VALID,0,INVALID,163.632,VALID,0,VALID,25.67,VALID,18,VALID,0.0773437,
2011-04-26, 00:41:05,VALID,1002.37,VALID,0,INVALID,163.632,VALID,0,VALID,25.6506,VALID,18,VALID,0.328125,
2011-04-26, 00:42:05,VALID,1002.34,VALID,0,INVALID,163.639,VALID,0,VALID,25.6097,VALID,18,VALID,0.152344,
2011-04-26, 00:43:05,VALID,1002.35,VALID,0,INVALID,163.624,VALID,0,VALID,25.5921,VALID,18,VALID,0.341406,
2011-04-26, 00:44:05,VALID,1002.33,VALID,0,INVALID,163.632,VALID,0.100563,VALID,25.5688,VALID,16,VALID,0.738281,
2011-04-26, 00:45:05,VALID,1002.3,VALID,0,INVALID,163.639,VALID,0,VALID,25.5902,VALID,13,VALID,0.629687,
2011-04-26, 00:46:05,VALID,1002.28,VALID,0,INVALID,163.624,VALID,0.100563,VALID,25.5902,VALID,3,VALID,0.571094,
2011-04-26, 00:47:05,VALID,1002.25,VALID,0,INVALID,163.632,VALID,0.100563,VALID,25.5688,VALID,3,VALID,0.29375,
2011-04-26, 00:48:05,VALID,1002.21,VALID,0,INVALID,163.639,VALID,0,VALID,25.5493,VALID,3,VALID,0.358594,
2011-04-26, 00:49:05,VALID,1002.2,VALID,0,INVALID,163.609,VALID,0,VALID,25.5493,VALID,3,VALID,0.299609,
2011-04-26, 00:50:05,VALID,1002.19,VALID,0,INVALID,163.639,VALID,0,VALID,25.5298,VALID,3,VALID,0.569531,
2011-04-26, 00:51:05,VALID,1002.22,VALID,0,INVALID,163.632,VALID,0.100563,VALID,25.5727,VALID,8,VALID,0.748047,
2011-04-26, 00:52:05,VALID,1002.2,VALID,0,INVALID,163.609,VALID,0,VALID,25.5707,VALID,28,VALID,0.321094,
2011-04-26, 00:53:05,VALID,1002.19,VALID,0,INVALID,163.617,VALID,0.100563,VALID,25.5513,VALID,359,VALID,0.55,
2011-04-26, 00:54:05,VALID,1002.18,VALID,0,INVALID,163.609,VALID,0,VALID,25.5298,VALID,21,VALID,0.963281,
2011-04-26, 00:55:05,VALID,1002.17,VALID,0,INVALID,163.609,VALID,0,VALID,25.5104,VALID,11,VALID,1.25469,
2011-04-26, 00:56:05,VALID,1002.17,VALID,0,INVALID,163.639,VALID,0.100563,VALID,25.5707,VALID,348,VALID,0.720703,
2011-04-26, 00:57:05,VALID,1002.16,VALID,0,INVALID,163.624,VALID,0.100563,VALID,25.5493,VALID,359,VALID,0.419922,
2011-04-26, 00:58:05,VALID,1002.12,VALID,0,INVALID,163.624,VALID,0.100563,VALID,25.5707,VALID,33,VALID,1.05,
2011-04-26, 00:59:05,VALID,1002.12,VALID,0,INVALID,163.617,VALID,0,VALID,25.6116,VALID,5,VALID,1.52969,
2011-04-26, 01:00:05,VALID,1002.08,VALID,0,INVALID,163.609,VALID,0,VALID,25.6506,VALID,5,VALID,0.923437,
2011-04-26, 01:01:05,VALID,1002.09,VALID,0,INVALID,163.624,VALID,0,VALID,25.6895,VALID,37,VALID,0.857031,
2011-04-26, 01:02:05,VALID,1002.06,VALID,0,INVALID,163.624,VALID,0,VALID,25.748,VALID,9,VALID,0.995313,
2011-04-26, 01:03:05,VALID,1002.05,VALID,0,INVALID,163.586,VALID,0,VALID,25.7071,VALID,343,VALID,0.752344,
2011-04-26, 01:04:05,VALID,1002.06,VALID,0,INVALID,163.594,VALID,0,VALID,25.6876,VALID,18,VALID,0.725391,
2011-04-26, 01:05:05,VALID,1002.05,VALID,0,INVALID,163.609,VALID,0,VALID,25.709,VALID,19,VALID,0.654688,
2011-04-26, 01:06:05,VALID,1002.05,VALID,0,INVALID,163.617,VALID,0,VALID,25.7265,VALID,26,VALID,0.986328,
2011-04-26, 01:07:05,VALID,1002.03,VALID,0,INVALID,163.601,VALID,0,VALID,25.8239,VALID,351,VALID,1.03945,
2011-04-26, 01:08:05,VALID,1002.02,VALID,0,INVALID,163.594,VALID,0,VALID,25.8648,VALID,10,VALID,0.977734,
2011-04-26, 01:09:05,VALID,1002.02,VALID,0,INVALID,163.601,VALID,0,VALID,25.8434,VALID,359,VALID,0.592188,
2011-04-26, 01:10:05,VALID,1002.02,VALID,0,INVALID,163.639,VALID,0,VALID,25.785,VALID,360,VALID,0.479297,
2011-04-26, 01:11:05,VALID,1002.04,VALID,0,INVALID,163.601,VALID,0,VALID,25.8064,VALID,360,VALID,0.426562,
2011-04-26, 01:12:05,VALID,1002.06,VALID,0,INVALID,163.594,VALID,0,VALID,25.7265,VALID,360,VALID,0.508203,
2011-04-26, 01:13:05,VALID,1002.04,VALID,0,INVALID,163.662,VALID,0,VALID,25.6895,VALID,360,VALID,0.239453,
2011-04-26, 01:14:05,VALID,1002.02,VALID,0,INVALID,163.639,VALID,0,VALID,25.6097,VALID,18,VALID,0.809375,
2011-04-26, 01:15:05,VALID,1002,VALID,0,INVALID,163.632,VALID,0,VALID,25.5513,VALID,7,VALID,0.660547,
2011-04-26, 01:16:05,VALID,1001.97,VALID,0,INVALID,163.624,VALID,0,VALID,25.5337,VALID,343,VALID,0.623438,
2011-04-26, 01:17:05,VALID,1001.99,VALID,0,INVALID,163.617,VALID,0,VALID,25.5513,VALID,56,VALID,0.362109,
2011-04-26, 01:18:05,VALID,1001.99,VALID,0,INVALID,163.655,VALID,0,VALID,25.5318,VALID,61,VALID,0.460938,
2011-04-26, 01:19:05,VALID,1001.99,VALID,0,INVALID,163.632,VALID,0,VALID,25.4928,VALID,61,VALID,0.133984,
2011-04-26, 01:20:05,VALID,1001.99,VALID,0,INVALID,163.647,VALID,0,VALID,25.4948,VALID,61,VALID,0.130859,
2011-04-26, 01:21:05,VALID,1001.95,VALID,0,INVALID,163.624,VALID,0,VALID,25.4558,VALID,61,VALID,0.000390625,
2011-04-26, 01:22:05,VALID,1001.94,VALID,0,INVALID,163.647,VALID,0,VALID,25.3955,VALID,73,VALID,0.422266,
2011-04-26, 01:23:05,VALID,1001.92,VALID,0,INVALID,163.624,VALID,0,VALID,25.3974,VALID,74,VALID,0.196484,
2011-04-26, 01:24:05,VALID,1001.91,VALID,0,INVALID,163.639,VALID,0,VALID,25.3584,VALID,71,VALID,0.497266,
2011-04-26, 01:25:05,VALID,1001.93,VALID,0,INVALID,163.624,VALID,0,VALID,25.339,VALID,64,VALID,0.535937,
2011-04-26, 01:26:05,VALID,1001.86,VALID,0,INVALID,163.655,VALID,0,VALID,25.3779,VALID,86,VALID,0.409766,
2011-04-26, 01:27:05,VALID,1001.84,VALID,0,INVALID,163.632,VALID,0,VALID,25.4169,VALID,87,VALID,0.450781,
2011-04-26, 01:28:05,VALID,1001.82,VALID,0,INVALID,163.647,VALID,0,VALID,25.4753,VALID,87,VALID,0.146094,
2011-04-26, 01:29:05,VALID,1001.84,VALID,0,INVALID,163.632,VALID,0,VALID,25.4948,VALID,91,VALID,0.492969,
2011-04-26, 01:30:05,VALID,1001.86,VALID,0,INVALID,163.639,VALID,0,VALID,25.5142,VALID,89,VALID,0.296484,
2011-04-26, 01:31:05,VALID,1001.85,VALID,0,INVALID,163.624,VALID,0,VALID,25.5142,VALID,90,VALID,0.262891,
2011-04-26, 01:32:05,VALID,1001.83,VALID,0,INVALID,163.624,VALID,0,VALID,25.5532,VALID,90,VALID,0.275391,
2011-04-26, 01:33:05,VALID,1001.85,VALID,0,INVALID,163.594,VALID,0,VALID,25.5727,VALID,70,VALID,0.694922,
2011-04-26, 01:34:05,VALID,1001.85,VALID,0,INVALID,163.632,VALID,0,VALID,25.5727,VALID,73,VALID,0.386719,
2011-04-26, 01:35:05,VALID,1001.82,VALID,0,INVALID,163.617,VALID,0,VALID,25.6311,VALID,101,VALID,0.338281,
2011-04-26, 01:36:05,VALID,1001.86,VALID,0,INVALID,163.617,VALID,0,VALID,25.6506,VALID,101,VALID,0.522656,
2011-04-26, 01:37:05,VALID,1001.88,VALID,0,INVALID,163.624,VALID,0,VALID,25.6681,VALID,71,VALID,0.959375,
2011-04-26, 01:38:05,VALID,1001.89,VALID,0,INVALID,163.632,VALID,0,VALID,25.6876,VALID,99,VALID,0.496484,
2011-04-26, 01:39:05,VALID,1001.9,VALID,0,INVALID,163.624,VALID,0,VALID,25.7285,VALID,97,VALID,0.245312,
2011-04-26, 01:40:05,VALID,1001.88,VALID,0,INVALID,163.609,VALID,0,VALID,25.7265,VALID,82,VALID,0.647656,
2011-04-26, 01:41:05,VALID,1001.87,VALID,0,INVALID,163.632,VALID,0,VALID,25.746,VALID,85,VALID,0.645703,
2011-04-26, 01:42:05,VALID,1001.91,VALID,0,INVALID,163.594,VALID,0.100563,VALID,25.7674,VALID,74,VALID,0.448438,
2011-04-26, 01:43:05,VALID,1001.88,VALID,0,INVALID,163.624,VALID,0,VALID,25.8064,VALID,109,VALID,0.960156,
2011-04-26, 01:44:05,VALID,1001.91,VALID,0,INVALID,163.617,VALID,0,VALID,25.8064,VALID,81,VALID,0.964063,
2011-04-26, 01:45:05,VALID,1001.91,VALID,0,INVALID,163.601,VALID,0,VALID,25.8453,VALID,85,VALID,0.785156,
2011-04-26, 01:46:05,VALID,1001.87,VALID,0,INVALID,163.594,VALID,0,VALID,25.8434,VALID,77,VALID,0.789063,
2011-04-26, 01:47:05,VALID,1001.83,VALID,0,INVALID,163.609,VALID,0,VALID,25.8629,VALID,24,VALID,0.474219,
2011-04-26, 01:48:05,VALID,1001.81,VALID,0,INVALID,163.632,VALID,0,VALID,25.8823,VALID,39,VALID,0.498047,
2011-04-26, 01:49:05,VALID,1001.81,VALID,0,INVALID,163.594,VALID,0,VALID,25.9232,VALID,47,VALID,0.382031,
2011-04-26, 01:50:05,VALID,1001.8,VALID,0,INVALID,163.586,VALID,0,VALID,25.9038,VALID,28,VALID,1.38477,
2011-04-26, 01:51:05,VALID,1001.78,VALID,0,INVALID,163.609,VALID,0,VALID,25.9232,VALID,78,VALID,0.54375,
2011-04-26, 01:52:05,VALID,1001.77,VALID,0,INVALID,163.601,VALID,0,VALID,25.9213,VALID,80,VALID,0.905078,
2011-04-26, 01:53:05,VALID,1001.73,VALID,0,INVALID,163.609,VALID,0,VALID,25.9622,VALID,77,VALID,1.02148,
2011-04-26, 01:54:05,VALID,1001.71,VALID,0,INVALID,163.601,VALID,0,VALID,25.9817,VALID,75,VALID,0.5,
2011-04-26, 01:55:05,VALID,1001.73,VALID,0,INVALID,163.624,VALID,0,VALID,26.0401,VALID,40,VALID,1.41445,
2011-04-26, 01:56:05,VALID,1001.71,VALID,0,INVALID,163.571,VALID,0,VALID,26.157,VALID,82,VALID,2.075,
2011-04-26, 01:57:05,VALID,1001.67,VALID,0,INVALID,163.594,VALID,0,VALID,26.2154,VALID,57,VALID,0.767969,
2011-04-26, 01:58:05,VALID,1001.67,VALID,0,INVALID,163.548,VALID,0,VALID,26.2134,VALID,72,VALID,1.48047,
2011-04-26, 01:59:05,VALID,1001.62,VALID,0,INVALID,163.578,VALID,0,VALID,26.2329,VALID,78,VALID,0.969141,
2011-04-26, 02:00:05,VALID,1001.61,VALID,0,INVALID,163.556,VALID,0,VALID,26.3128,VALID,94,VALID,1.63828,
2011-04-26, 02:01:05,VALID,1001.58,VALID,0,INVALID,163.563,VALID,0,VALID,26.2913,VALID,104,VALID,0.744922,
2011-04-26, 02:02:05,VALID,1001.59,VALID,0,INVALID,163.578,VALID,0,VALID,26.3128,VALID,93,VALID,0.801953,
2011-04-26, 02:03:05,VALID,1001.58,VALID,0,INVALID,163.54,VALID,0,VALID,26.3323,VALID,103,VALID,0.894922,
2011-04-26, 02:04:05,VALID,1001.56,VALID,0,INVALID,163.578,VALID,0,VALID,26.3518,VALID,62,VALID,1.26445,
2011-04-26, 02:05:05,VALID,1001.56,VALID,0,INVALID,163.556,VALID,0,VALID,26.3323,VALID,38,VALID,0.954687,
2011-04-26, 02:06:05,VALID,1001.53,VALID,0,INVALID,163.533,VALID,0,VALID,26.2913,VALID,65,VALID,0.864062,
2011-04-26, 02:07:05,VALID,1001.5,VALID,0,INVALID,161.61,VALID,0,VALID,26.2933,VALID,58,VALID,0.464844,
2011-04-26, 02:08:05,VALID,1001.47,VALID,0,INVALID,163.243,VALID,0,VALID,26.2933,VALID,75,VALID,0.753125,
2011-04-26, 02:09:05,VALID,1001.51,VALID,0,INVALID,163.51,VALID,0,VALID,26.2739,VALID,49,VALID,0.375,
2011-04-26, 02:10:05,VALID,1001.49,VALID,0,INVALID,163.54,VALID,0,VALID,26.2154,VALID,73,VALID,1.17734,
2011-04-26, 02:11:05,VALID,1001.44,VALID,0,INVALID,163.533,VALID,0,VALID,26.1959,VALID,39,VALID,0.815625,
2011-04-26, 02:12:05,VALID,1001.45,VALID,0,INVALID,162.457,VALID,0,VALID,26.1979,VALID,57,VALID,1.11758,
2011-04-26, 02:13:05,VALID,1001.44,VALID,0,INVALID,163.54,VALID,0,VALID,26.1765,VALID,89,VALID,1.29102,
2011-04-26, 02:14:05,VALID,1001.43,VALID,0,INVALID,163.578,VALID,0,VALID,26.1375,VALID,13,VALID,1.15664,
2011-04-26, 02:15:05,VALID,1001.41,VALID,0,INVALID,163.571,VALID,0,VALID,26.0985,VALID,75,VALID,0.932422,
2011-04-26, 02:16:05,VALID,1001.41,VALID,0,INVALID,163.571,VALID,0,VALID,26.0596,VALID,18,VALID,1.27578,
2011-04-26, 02:17:05,VALID,1001.42,VALID,0,INVALID,163.571,VALID,0,VALID,25.9992,VALID,86,VALID,0.877734,
2011-04-26, 02:18:05,VALID,1001.44,VALID,0,INVALID,163.571,VALID,0,VALID,25.9817,VALID,49,VALID,0.814062,
2011-04-26, 02:19:05,VALID,1001.44,VALID,0,INVALID,163.563,VALID,0,VALID,25.9817,VALID,40,VALID,0.688672,
2011-04-26, 02:20:05,VALID,1001.43,VALID,0,INVALID,163.571,VALID,0,VALID,25.9622,VALID,40,VALID,0.455859,
2011-04-26, 02:21:05,VALID,1001.42,VALID,0,INVALID,163.563,VALID,0,VALID,25.9018,VALID,50,VALID,0.657812,
2011-04-26, 02:22:05,VALID,1001.39,VALID,0,INVALID,163.571,VALID,0,VALID,25.9252,VALID,69,VALID,0.628906,
2011-04-26, 02:23:05,VALID,1001.37,VALID,0,INVALID,163.601,VALID,0,VALID,25.8843,VALID,25,VALID,0.479688,
2011-04-26, 02:24:05,VALID,1001.39,VALID,0,INVALID,163.617,VALID,0,VALID,25.8434,VALID,95,VALID,0.542969,
2011-04-26, 02:25:05,VALID,1001.36,VALID,0,INVALID,163.594,VALID,0,VALID,25.8648,VALID,79,VALID,0.795313,
2011-04-26, 02:26:05,VALID,1001.35,VALID,0,INVALID,163.617,VALID,0,VALID,25.8843,VALID,102,VALID,1.07266,
2011-04-26, 02:27:05,VALID,1001.36,VALID,0,INVALID,163.578,VALID,0,VALID,25.9232,VALID,86,VALID,1.19219,
2011-04-26, 02:28:05,VALID,1001.33,VALID,0,INVALID,163.601,VALID,0,VALID,25.9232,VALID,79,VALID,1.03828,
2011-04-26, 02:29:05,VALID,1001.35,VALID,0,INVALID,163.563,VALID,0,VALID,25.9427,VALID,84,VALID,1.4957,
2011-04-26, 02:30:05,VALID,1001.32,VALID,0,INVALID,161.992,VALID,0,VALID,25.9408,VALID,40,VALID,0.713672,
2011-04-26, 02:31:05,VALID,1001.33,VALID,0,INVALID,153.638,VALID,0,VALID,25.9622,VALID,54,VALID,0.439063,
2011-04-26, 02:32:05,VALID,1001.39,VALID,0,INVALID,147.588,VALID,0,VALID,25.9622,VALID,87,VALID,1.3668,
2011-04-26, 02:33:05,VALID,1001.35,VALID,0,INVALID,146.665,VALID,0,VALID,25.9836,VALID,29,VALID,1.00391,
2011-04-26, 02:34:05,VALID,1001.33,VALID,0,INVALID,152.013,VALID,0,VALID,25.9817,VALID,19,VALID,0.894922,
2011-04-26, 02:35:05,VALID,1001.37,VALID,0,INVALID,150.571,VALID,0,VALID,25.9427,VALID,11,VALID,0.712109,
2011-04-26, 02:36:05,VALID,1001.33,VALID,0,INVALID,153.005,VALID,0,VALID,25.9213,VALID,72,VALID,0.614844,
2011-04-26, 02:37:05,VALID,1001.31,VALID,0,INVALID,146.803,VALID,0,VALID,25.9427,VALID,81,VALID,1.14648,
2011-04-26, 02:38:05,VALID,1001.33,VALID,0,INVALID,146.429,VALID,0,VALID,25.9622,VALID,63,VALID,0.619141,
2011-04-26, 02:39:05,VALID,1001.27,VALID,0,INVALID,144.262,VALID,0,VALID,25.9642,VALID,94,VALID,1.03281,
2011-04-26, 02:40:05,VALID,1001.26,VALID,0,INVALID,137.32,VALID,0,VALID,25.9817,VALID,97,VALID,0.88125,
2011-04-26, 02:41:05,VALID,1001.25,VALID,0,INVALID,139.761,VALID,0,VALID,25.9602,VALID,59,VALID,0.535156,
2011-04-26, 02:42:05,VALID,1001.26,VALID,0,INVALID,134.772,VALID,0,VALID,26.0012,VALID,69,VALID,0.721094,
2011-04-26, 02:43:05,VALID,1001.24,VALID,0,INVALID,129.416,VALID,0,VALID,25.9817,VALID,65,VALID,0.957031,
2011-04-26, 02:44:05,VALID,1001.23,VALID,0,INVALID,129.95,VALID,0,VALID,25.9992,VALID,79,VALID,0.714063,
2011-04-26, 02:45:05,VALID,1001.2,VALID,0,INVALID,130.248,VALID,0.100563,VALID,25.9797,VALID,108,VALID,0.617188,
2011-04-26, 02:46:05,VALID,1001.23,VALID,0,INVALID,130.957,VALID,0.100563,VALID,25.9817,VALID,94,VALID,0.867578,
2011-04-26, 02:47:05,VALID,1001.18,VALID,0,INVALID,125.159,VALID,0,VALID,25.9602,VALID,81,VALID,1.21992,
2011-04-26, 02:48:05,VALID,1001.22,VALID,0,INVALID,124.206,VALID,0,VALID,25.9992,VALID,88,VALID,0.983203,
2011-04-26, 02:49:05,VALID,1001.19,VALID,0,INVALID,118.492,VALID,0,VALID,26.0206,VALID,82,VALID,1.32148,
2011-04-26, 02:50:05,VALID,1001.23,VALID,0,INVALID,116.836,VALID,0.100563,VALID,26.0187,VALID,92,VALID,0.579297,
2011-04-26, 02:51:05,VALID,1001.19,VALID,0,INVALID,112.328,VALID,0,VALID,26.0576,VALID,86,VALID,1.42188,
2011-04-26, 02:52:05,VALID,1001.2,VALID,0,INVALID,110.054,VALID,0,VALID,26.0771,VALID,98,VALID,1.50352,
2011-04-26, 02:53:05,VALID,1001.2,VALID,0,VALID,104,VALID,0,VALID,26.116,VALID,110,VALID,1.33867,
2011-04-26, 02:54:05,VALID,1001.19,VALID,0,VALID,104,VALID,0,VALID,26.116,VALID,110,VALID,2.98242,
2011-04-26, 02:55:05,VALID,1001.19,VALID,0,VALID,104,VALID,0,VALID,26.194,VALID,127,VALID,2.63867,
2011-04-26, 02:56:05,VALID,1001.2,VALID,0,VALID,104,VALID,0,VALID,26.192,VALID,109,VALID,1.28711,
2011-04-26, 02:57:05,VALID,1001.21,VALID,0,VALID,104,VALID,0.100563,VALID,26.194,VALID,96,VALID,0.919141,
2011-04-26, 02:58:05,VALID,1001.18,VALID,0,VALID,104,VALID,0.100563,VALID,26.194,VALID,81,VALID,1.09922,
2011-04-26, 02:59:05,VALID,1001.2,VALID,0,VALID,103.943,VALID,0,VALID,26.194,VALID,88,VALID,0.973047,
2011-04-26, 03:00:05,VALID,1001.22,VALID,0,VALID,104,VALID,0,VALID,26.2154,VALID,99,VALID,0.997266,
2011-04-26, 03:01:05,VALID,1001.19,VALID,0,VALID,103.791,VALID,0,VALID,26.1959,VALID,94,VALID,0.936719,
2011-04-26, 03:02:05,VALID,1001.16,VALID,0,VALID,103.753,VALID,0,VALID,26.1745,VALID,100,VALID,1.12812,
2011-04-26, 03:03:05,VALID,1001.17,VALID,0,VALID,104,VALID,0,VALID,26.1355,VALID,128,VALID,0.803906,
2011-04-26, 03:04:05,VALID,1001.14,VALID,0,VALID,104,VALID,0,VALID,26.118,VALID,104,VALID,0.732422,
2011-04-26, 03:05:05,VALID,1001.13,VALID,0,VALID,104,VALID,0,VALID,26.0966,VALID,118,VALID,1.35391,
2011-04-26, 03:06:05,VALID,1001.13,VALID,0,VALID,104,VALID,0,VALID,26.116,VALID,85,VALID,0.849609,
2011-04-26, 03:07:05,VALID,1001.14,VALID,0,VALID,104,VALID,0,VALID,26.0791,VALID,97,VALID,1.13594,
2011-04-26, 03:08:05,VALID,1001.19,VALID,0,VALID,104,VALID,0,VALID,26.0401,VALID,84,VALID,1.03711,
2011-04-26, 03:09:05,VALID,1001.18,VALID,0,VALID,104,VALID,0.100563,VALID,26.0187,VALID,90,VALID,0.818359,
2011-04-26, 03:10:05,VALID,1001.2,VALID,0,VALID,104,VALID,0.100563,VALID,26.0206,VALID,66,VALID,0.707422,
2011-04-26, 03:11:05,VALID,1001.22,VALID,0,VALID,104,VALID,0,VALID,25.9602,VALID,84,VALID,0.574609,
2011-04-26, 03:12:05,VALID,1001.22,VALID,0,VALID,104,VALID,0,VALID,25.9408,VALID,99,VALID,0.582031,
2011-04-26, 03:13:05,VALID,1001.23,VALID,0,VALID,104,VALID,0,VALID,25.9018,VALID,78,VALID,0.727734,
2011-04-26, 03:14:05,VALID,1001.25,VALID,0,INVALID,110.062,VALID,0,VALID,25.8629,VALID,80,VALID,0.600391,
2011-04-26, 03:15:04,VALID,1001.27,VALID,0,INVALID,111.107,VALID,0,VALID,25.8629,VALID,112,VALID,0.753125,
2011-04-26, 03:16:04,VALID,1001.31,VALID,0,INVALID,112.801,VALID,0,VALID,25.8648,VALID,90,VALID,0.779688,
2011-04-26, 03:17:04,VALID,1001.3,VALID,0,INVALID,113.792,VALID,0,VALID,25.8629,VALID,109,VALID,0.699219,
2011-04-26, 03:18:04,VALID,1001.28,VALID,0,INVALID,111.649,VALID,0.100563,VALID,25.9018,VALID,95,VALID,1.03555,
2011-04-26, 03:19:04,VALID,1001.29,VALID,0,INVALID,111.199,VALID,0,VALID,25.9018,VALID,103,VALID,0.651172,
2011-04-26, 03:20:04,VALID,1001.29,VALID,0,INVALID,110.703,VALID,0,VALID,25.9213,VALID,78,VALID,0.717188,
2011-04-26, 03:21:04,VALID,1001.27,VALID,0,INVALID,111.649,VALID,0,VALID,25.9018,VALID,114,VALID,1.01055,
2011-04-26, 03:22:04,VALID,1001.27,VALID,0,INVALID,112.862,VALID,0,VALID,25.8843,VALID,90,VALID,1.03281,
2011-04-26, 03:23:04,VALID,1001.21,VALID,0,INVALID,114.136,VALID,0,VALID,25.8629,VALID,82,VALID,0.589453,
2011-04-26, 03:24:04,VALID,1001.24,VALID,0,INVALID,115.562,VALID,0,VALID,25.8648,VALID,75,VALID,0.935938,
2011-04-26, 03:25:04,VALID,1001.23,VALID,0,INVALID,117.5,VALID,0,VALID,25.8434,VALID,68,VALID,0.697656,
2011-04-26, 03:26:04,VALID,1001.22,VALID,0,INVALID,119.812,VALID,0,VALID,25.8259,VALID,85,VALID,1.425,
2011-04-26, 03:27:04,VALID,1001.19,VALID,0,INVALID,125.564,VALID,0,VALID,25.8259,VALID,86,VALID,1.33672,
2011-04-26, 03:28:04,VALID,1001.25,VALID,0,INVALID,132.506,VALID,0,VALID,25.7869,VALID,81,VALID,0.910547,
2011-04-26, 03:29:04,VALID,1001.22,VALID,0,INVALID,139.166,VALID,0,VALID,25.746,VALID,94,VALID,0.678125,
2011-04-26, 03:30:04,VALID,1001.2,VALID,0,INVALID,142.843,VALID,0,VALID,25.7869,VALID,70,VALID,0.958203,
2011-04-26, 03:31:04,VALID,1001.18,VALID,0,INVALID,141.951,VALID,0,VALID,25.785,VALID,69,VALID,0.373828,
2011-04-26, 03:32:04,VALID,1001.18,VALID,0,INVALID,144.247,VALID,0.100563,VALID,25.8044,VALID,61,VALID,0.776953,
2011-04-26, 03:33:04,VALID,1001.18,VALID,0,INVALID,146.566,VALID,0,VALID,25.7655,VALID,74,VALID,0.480078,
2011-04-26, 03:34:04,VALID,1001.2,VALID,0,INVALID,152.562,VALID,0,VALID,25.7869,VALID,50,VALID,0.440625,
2011-04-26, 03:35:04,VALID,1001.2,VALID,0,INVALID,163.281,VALID,0,VALID,25.746,VALID,86,VALID,0.364453,
2011-04-26, 03:36:04,VALID,1001.18,VALID,0,INVALID,163.571,VALID,0,VALID,25.7071,VALID,60,VALID,0.426953,
2011-04-26, 03:37:04,VALID,1001.18,VALID,0,INVALID,163.578,VALID,0,VALID,25.6681,VALID,56,VALID,0.117969,
2011-04-26, 03:38:04,VALID,1001.18,VALID,0,INVALID,163.632,VALID,0,VALID,25.67,VALID,67,VALID,0.623047,
2011-04-26, 03:39:04,VALID,1001.19,VALID,0,INVALID,163.601,VALID,0,VALID,25.6311,VALID,65,VALID,0.321484,
2011-04-26, 03:40:04,VALID,1001.21,VALID,0,INVALID,163.624,VALID,0,VALID,25.5727,VALID,22,VALID,0.724609,
2011-04-26, 03:41:04,VALID,1001.21,VALID,0,INVALID,163.594,VALID,0,VALID,25.5123,VALID,24,VALID,0.188672,